User: anonymous   Login
Location: Unspecified
(0.0000°N, 0.0000°E)
Time: 13:14:43
(UTC+00:00)
Language:

GRACE-FO 2 - Orbit

View from above orbital plane
View from above orbital plane
View from above satellite
View from above satellite

Ground track
Ground track

The orbit data is extracted from the following two-line orbital elements,

1 43477U 18047B   24206.10773130 +.00003817  00000-0 +13196-3 0    06
2 43477  88.9772 293.9983 0010031 286.4999 159.0754 15.29813804343522
Epoch (UTC): 24 July 2024 02:35:07
Eccentricity: 0.0010031
inclination: 88.9772°
perigee height: 469 km
apogee height: 483 km
right ascension of ascending node: 293.9983°
argument of perigee: 286.4999°
revolutions per day: 15.29813804
mean anomaly at epoch: 159.0754°
orbit number at epoch: 34352

The dashed part of the orbit path shows where the satellite is in the earth's shadow,  

DLR